[[{"header":{"parameterUnit":"m.s-1","parameterCategory":1,"la1":30.2991,"la2":30.254,"lo1":-89.0895,"lo2":-89.0444,"dy":0.0017,"dx":0.0017,"nx":28,"ny":28,"refTime":"2023-11-05T09:00:00:Z","depth":0,"parameterNumber":2,"parameterNumberName":"U-component_of_WINDS"},"data":[0,0,0,0,0,0,0,0,0,0,0,0,0,0,0,0,0,0,0,0,0,0,0,0,0,0,0,0,0,0,0,0,0,0,0,0,0,0,0,0,0,0,0,0,0,0,0,0,0,0,0,0,0,0,0,0,0,0,0.5629,0.5629,0,0.5593,0.5593,0.5592,0.5555,0.5554,0.5554,0.5553,0.5514,0.5514,0.5513,0,0,0,0,0,0,0,0,0,0,0,0,0,0.5666,0.5665,0.5629,0.5629,0.5628,0.5593,0.5593,0.5592,0.5555,0.5554,0.5553,0.5553,0.5515,0.5514,0.5513,0,0,0,0,0,0,0,0,0,0,0,0,0,0.5642,0.5665,0.5629,0.5605,0.5603,0.5593,0.5593,0.5592,0.5555,0.5554,0.5553,0.5553,0.5515,0.5514,0.5513,0.5524,0,0,0.5511,0.551,0,0,0,0,0,0,0,0,0.5643,0.564,0.5609,0.5607,0.5604,0.5578,0.5591,0.5569,0.5555,0.5573,0.5553,0.5552,0.5536,0.5533,0.5528,0.5522,0.552,0.5511,0.551,0.551,0.551,0,0,0,0,0,0,0,0.5645,0.5642,0.5615,0.5609,0.5606,0.5596,0.5592,0.5587,0.5559,0.5571,0.5569,0.5565,0.5534,0.5529,0.5527,0.5519,0.5511,0.551,0.5509,0.5509,0.5522,0.5522,0,0,0,0,0,0,0.565,0.5643,0.5616,0.5614,0.5622,0.5596,0.5592,0.5587,0.5559,0.5554,0.5566,0.5563,0.5531,0.5528,0.5526,0.5537,0.551,0.5509,0.5509,0.5521,0.5522,0.5523,0,0,0,0,0,0,0.5651,0.5648,0.5617,0.5628,0.5623,0.5597,0.5592,0.5587,0.5581,0.5555,0.555,0.5565,0.553,0.5527,0.5525,0.5535,0.5509,0.5508,0.552,0.5521,0.5522,0.5559,0,0,0,0,0,0,0.5652,0.5649,0.5652,0.5628,0.5623,0.5617,0.5592,0.5586,0.558,0.5577,0.5553,0.5548,0.5529,0.5526,0.5524,0.5533,0.5507,0.5519,0.552,0.5522,0.5556,0.5561,0.5565,0,0,0,0,0,0.5654,0.5663,0.5652,0.5649,0.5627,0.5618,0.5615,0.5593,0.5581,0.5584,0.5568,0.5549,0.5534,0.5526,0.5524,0.5533,0.5518,0.552,0.5522,0.5554,0.556,0.5565,0,0,0,0,0,0,0.5687,0.5659,0.5647,0.5649,0.5636,0.5612,0.5615,0.5599,0.5589,0.5586,0.5559,0.5554,0.5556,0.5544,0.5536,0.5542,0.5524,0.5525,0.555,0.5555,0.5559,0.5561,0.5507,0,0,0,0,0,0.5695,0.5691,0.5666,0.567,0.5665,0.5641,0.5637,0.5621,0.5607,0.5601,0.5584,0.557,0.5563,0.5558,0.555,0.5555,0.555,0.556,0.5564,0.5568,0.5569,0.5573,0.5577,0.5529,0.5529,0.5529,0,0,0.5711,0.5695,0.5693,0.5677,0.5665,0.5661,0.5637,0.5633,0.563,0.56,0.5598,0.5585,0.5568,0.5571,0.5571,0.5561,0.5582,0.557,0.5573,0.5573,0.5575,0.558,0.5584,0.553,0.553,0.553,0,0,0.5737,0.5725,0.5727,0.5717,0.57,0.5685,0.5686,0.5664,0.5655,0.5652,0.563,0.5627,0.5614,0.5603,0.5596,0.5622,0.5604,0.562,0.5641,0.5645,0.5649,0.5652,0.5662,0.5666,0.5621,0.5621,0.5621,0,0.5758,0.5752,0.573,0.5729,0.5723,0.5697,0.57,0.569,0.5672,0.5668,0.5657,0.5642,0.5629,0.5629,0.5636,0.5631,0.5631,0.5622,0.565,0.5653,0.5656,0.5665,0.5669,0.5623,0.5623,0.5623,0.5623,0,0.578,0.5776,0.578,0.5764,0.5758,0.5759,0.5737,0.5734,0.5721,0.5707,0.5705,0.5689,0.5677,0.5677,0.5662,0.5675,0.567,0.5655,0.5636,0.5663,0.5671,0.5674,0.5626,0.5625,0.5625,0.5624,0,0,0.5824,0.5798,0.58,0.5793,0.5774,0.577,0.5771,0.5761,0.5759,0.5747,0.5747,0.5738,0.5726,0.5718,0.5702,0.5706,0.5728,0.5691,0.569,0.5699,0.5743,0.5754,0.5758,0.5718,0.5718,0.5719,0.5745,0,0.5847,0.5846,0.5828,0.5832,0.5829,0.5806,0.5806,0.5795,0.5783,0.5778,0.5765,0.5759,0.5742,0.5738,0.574,0.5725,0.5737,0.5723,0.5717,0.5717,0.5722,0.5762,0.5773,0.5798,0.5748,0.5748,0.5748,0,0.5873,0.5865,0.587,0.5852,0.585,0.5851,0.5841,0.5837,0.5825,0.5816,0.5808,0.5792,0.5791,0.5774,0.5774,0.5765,0.5762,0.5754,0.5755,0.5753,0.5734,0.5761,0.5806,0.581,0.5753,0.5753,0.5752,0,0.5906,0.5896,0.5898,0.5892,0.5872,0.5874,0.5865,0.5852,0.5848,0.5839,0.5836,0.5828,0.5823,0.5817,0.5799,0.5788,0.5801,0.5782,0.5794,0.5794,0.5796,0.5796,0.5841,0.5795,0.5795,0.5795,0.5795,0,0.5933,0.5937,0.5912,0.5913,0.5917,0.5897,0.5901,0.5891,0.588,0.5878,0.5858,0.5857,0.5834,0.5831,0.5816,0.5819,0.5817,0.581,0.5806,0.5811,0.5812,0.5808,0.5806,0.5796,0.5796,0.5796,0.5796,0,0.5969,0.5953,0.5954,0.5936,0.5931,0.5935,0.5919,0.592,0.5908,0.5907,0.5905,0.5885,0.5881,0.5863,0.5854,0.5844,0.5851,0.5844,0.5856,0.5853,0.5866,0.5865,0.5909,0.5914,0.5866,0.5866,0.5866,0,0.5988,0.599,0.5973,0.5972,0.5964,0.5962,0.5958,0.5939,0.5936,0.5923,0.5925,0.592,0.5914,0.5908,0.5893,0.5886,0.5878,0.5895,0.5877,0.5883,0.5879,0.5879,0.588,0.5898,0.5898,0.5899,0.5899,0,0.6022,0.6015,0.601,0.6004,0.6,0.5994,0.5986,0.5986,0.5965,0.5962,0.5958,0.5954,0.5946,0.5941,0.5932,0.5924,0.5908,0.5905,0.5908,0.5913,0.592,0.5917,0.5866,0.5904,0.5904,0.5903,0.5903,0.5903,0.605,0.6052,0.6041,0.6037,0.603,0.6024,0.6024,0.6012,0.6009,0.6001,0.599,0.5988,0.5977,0.5965,0.5958,0.5956,0.5947,0.595,0.5951,0.5952,0.5955,0.5921,0.5954,0.5954,0.5954,0.5954,0.5954,0,0.6083,0.6076,0.6073,0.6064,0.6061,0.6048,0.604,0.6039,0.6037,0.6029,0.6024,0.6021,0.6016,0.6002,0.5996,0.5998,0.5991,0.5997,0.5996,0.5995,0.5963,0.5962,0.6003,0.6003,0.6003,0.6003,0.6003,0.6003,0.61,0.6103,0.6095,0.6095,0.6087,0.6085,0.6082,0.6077,0.607,0.6067,0.6064,0.6055,0.6045,0.6038,0.6034,0.603,0.6029,0.6038,0.6031,0.6002,0.5997,0.5992,0.5991,0.6038,0.6038,0.6063,0.6064,0.6064]},{"header":{"parameterUnit":"m.s-1","parameterCategory":1,"la1":30.2991,"la2":30.254,"lo1":-89.0895,"lo2":-89.0444,"dy":0.0017,"dx":0.0017,"nx":28,"ny":28,"refTime":"2023-11-05T09:00:00:Z","depth":0,"parameterNumber":3,"parameterNumberName":"V-component_of_WINDS"},"data":[0,0,0,0,0,0,0,0,0,0,0,0,0,0,0,0,0,0,0,0,0,0,0,0,0,0,0,0,0,0,0,0,0,0,0,0,0,0,0,0,0,0,0,0,0,0,0,0,0,0,0,0,0,0,0,0,0,0,-3.7006,-3.7007,0,-3.7133,-3.7134,-3.7136,-3.7095,-3.7092,-3.7089,-3.7087,-3.7212,-3.7218,-3.7224,0,0,0,0,0,0,0,0,0,0,0,0,0,-3.6725,-3.673,-3.7006,-3.7008,-3.7009,-3.7133,-3.7134,-3.7136,-3.7095,-3.7092,-3.7088,-3.7085,-3.721,-3.7217,-3.7224,0,0,0,0,0,0,0,0,0,0,0,0,0,-3.6849,-3.6732,-3.7006,-3.7004,-3.7005,-3.7132,-3.7134,-3.7136,-3.7096,-3.7092,-3.7088,-3.7084,-3.7208,-3.7217,-3.7225,-3.7361,0,0,-3.7252,-3.7256,0,0,0,0,0,0,0,0,-3.6842,-3.6859,-3.7002,-3.7004,-3.7005,-3.7094,-3.7081,-3.7212,-3.7097,-3.7061,-3.7087,-3.7082,-3.7176,-3.7187,-3.722,-3.7367,-3.7372,-3.7253,-3.7258,-3.7262,-3.7265,0,0,0,0,0,0,0,-3.6833,-3.6853,-3.7056,-3.7004,-3.7006,-3.6995,-3.7008,-3.7106,-3.714,-3.7064,-3.7061,-3.7077,-3.7176,-3.7211,-3.7222,-3.7374,-3.7253,-3.7261,-3.7266,-3.727,-3.764,-3.7644,0,0,0,0,0,0,-3.6824,-3.6847,-3.7052,-3.706,-3.6912,-3.7004,-3.7018,-3.7069,-3.7138,-3.7145,-3.708,-3.7075,-3.7198,-3.7212,-3.7227,-3.7391,-3.7262,-3.727,-3.7275,-3.7636,-3.7641,-3.7646,0,0,0,0,0,0,-3.6818,-3.6843,-3.7047,-3.6953,-3.6978,-3.7013,-3.7071,-3.7074,-3.7109,-3.7151,-3.7156,-3.7111,-3.7196,-3.7214,-3.7329,-3.7395,-3.7274,-3.7282,-3.763,-3.7637,-3.7644,-3.772,0,0,0,0,0,0,-3.6811,-3.6841,-3.6894,-3.6954,-3.6983,-3.7148,-3.7075,-3.708,-3.7125,-3.7119,-3.7181,-3.7187,-3.7194,-3.7316,-3.7337,-3.7405,-3.7289,-3.7624,-3.7633,-3.7641,-3.7712,-3.7729,-3.7744,0,0,0,0,0,-3.6801,-3.6909,-3.6897,-3.6922,-3.705,-3.7152,-3.7168,-3.7175,-3.7131,-3.7184,-3.721,-3.7185,-3.7384,-3.7328,-3.7352,-3.7423,-3.762,-3.7631,-3.7641,-3.7705,-3.7726,-3.7743,0,0,0,0,0,0,-3.6854,-3.6917,-3.6904,-3.7036,-3.7089,-3.7145,-3.7212,-3.7196,-3.7262,-3.7253,-3.7258,-3.7272,-3.739,-3.7417,-3.7354,-3.7558,-3.7495,-3.7511,-3.7536,-3.7556,-3.7571,-3.7562,-3.7297,0,0,0,0,0,-3.6882,-3.6961,-3.7011,-3.7122,-3.715,-3.7176,-3.7221,-3.7222,-3.7276,-3.7298,-3.7333,-3.7386,-3.7461,-3.751,-3.758,-3.7716,-3.7729,-3.7776,-3.7792,-3.7805,-3.7818,-3.7893,-3.7915,-3.768,-3.768,-3.768,0,0,-3.6939,-3.6983,-3.7032,-3.7134,-3.7175,-3.7256,-3.7195,-3.7283,-3.7343,-3.7311,-3.7422,-3.745,-3.7509,-3.7635,-3.7692,-3.7661,-3.7886,-3.7818,-3.7828,-3.7834,-3.7905,-3.7928,-3.7947,-3.7687,-3.7685,-3.7684,0,0,-3.7084,-3.7125,-3.7223,-3.7266,-3.733,-3.7348,-3.7371,-3.743,-3.7448,-3.7559,-3.7537,-3.7608,-3.7736,-3.7779,-3.7818,-3.7981,-3.7961,-3.8004,-3.8086,-3.8158,-3.8177,-3.8193,-3.8252,-3.8273,-3.8017,-3.8017,-3.8018,0,-3.7146,-3.7268,-3.7275,-3.7365,-3.7411,-3.7387,-3.7486,-3.7527,-3.7611,-3.7642,-3.7607,-3.7768,-3.7807,-3.7943,-3.7983,-3.8015,-3.8041,-3.7997,-3.8174,-3.8191,-3.8206,-3.8262,-3.8284,-3.8022,-3.8022,-3.8021,-3.8021,0,-3.7342,-3.7427,-3.7498,-3.7581,-3.7635,-3.7729,-3.7749,-3.7802,-3.7798,-3.7819,-3.7933,-3.7978,-3.8058,-3.809,-3.8086,-3.8226,-3.8205,-3.8172,-3.8109,-3.8233,-3.8286,-3.8308,-3.8029,-3.8028,-3.8026,-3.8025,0,0,-3.7524,-3.7611,-3.7637,-3.7675,-3.7744,-3.781,-3.7902,-3.7982,-3.8028,-3.8086,-3.8164,-3.8274,-3.8244,-3.8288,-3.8289,-3.8353,-3.848,-3.8312,-3.8313,-3.8342,-3.8637,-3.8662,-3.8687,-3.8467,-3.8471,-3.8474,-3.8633,0,-3.7676,-3.7841,-3.785,-3.7999,-3.8078,-3.8057,-3.8138,-3.8189,-3.8211,-3.828,-3.8303,-3.8381,-3.8336,-3.8363,-3.8425,-3.8452,-3.8539,-3.844,-3.8539,-3.8542,-3.8525,-3.8715,-3.8741,-3.8889,-3.8653,-3.8657,-3.8659,0,-3.7875,-3.7941,-3.8099,-3.8159,-3.8192,-3.8265,-3.8339,-3.8406,-3.8463,-3.8474,-3.8525,-3.8517,-3.8611,-3.8545,-3.8675,-3.8607,-3.8648,-3.8667,-3.8673,-3.8683,-3.8609,-3.873,-3.8936,-3.8958,-3.8692,-3.8689,-3.8687,0,-3.7993,-3.8122,-3.8233,-3.8266,-3.8338,-3.839,-3.8422,-3.8475,-3.8523,-3.8587,-3.8618,-3.8692,-3.8733,-3.879,-3.8802,-3.8753,-3.8933,-3.8867,-3.8945,-3.8945,-3.8984,-3.8981,-3.92,-3.9009,-3.9009,-3.9008,-3.9008,0,-3.8161,-3.8259,-3.8287,-3.8356,-3.8465,-3.8474,-3.858,-3.8609,-3.8657,-3.873,-3.8715,-3.8784,-3.8796,-3.8867,-3.8877,-3.8983,-3.9001,-3.9013,-3.9015,-3.9015,-3.9014,-3.9042,-3.9032,-3.9014,-3.9013,-3.9012,-3.9011,0,-3.8312,-3.8335,-3.8455,-3.8514,-3.8531,-3.8609,-3.8658,-3.8724,-3.8744,-3.8837,-3.8859,-3.8891,-3.8974,-3.8992,-3.909,-3.9097,-3.9224,-3.9215,-3.9205,-3.9204,-3.9281,-3.9274,-3.9526,-3.956,-3.9346,-3.9348,-3.935,0,-3.8418,-3.8493,-3.8561,-3.861,-3.8645,-3.8723,-3.8773,-3.8784,-3.8836,-3.8907,-3.8964,-3.9046,-3.9112,-3.9246,-3.9277,-3.9352,-3.9345,-3.9428,-3.9356,-3.9354,-3.9347,-3.9343,-3.9351,-3.9442,-3.9444,-3.9446,-3.9448,0,-3.8605,-3.8613,-3.8685,-3.8763,-3.8823,-3.8883,-3.8941,-3.8981,-3.9001,-3.9059,-3.9145,-3.9197,-3.9298,-3.9379,-3.9455,-3.9486,-3.9471,-3.947,-3.9492,-3.9493,-3.9485,-3.9492,-3.9243,-3.9464,-3.9463,-3.9461,-3.9461,-3.946,-3.8737,-3.8803,-3.8862,-3.8943,-3.8988,-3.9043,-3.9108,-3.9137,-3.921,-3.9294,-3.9296,-3.939,-3.9445,-3.9545,-3.9582,-3.9655,-3.9628,-3.966,-3.9668,-3.9676,-3.9684,-3.9473,-3.9668,-3.9668,-3.9667,-3.9667,-3.9666,0,-3.8924,-3.8961,-3.9036,-3.9118,-3.9182,-3.9163,-3.9227,-3.9281,-3.9365,-3.9418,-3.9484,-3.9583,-3.9663,-3.9701,-3.9779,-3.983,-3.9825,-3.985,-3.9846,-3.9854,-3.9702,-3.9676,-3.9853,-3.9853,-3.9853,-3.9853,-3.9853,-3.9853,-3.9029,-3.914,-3.9155,-3.9289,-3.9324,-3.9418,-3.9455,-3.9506,-3.9549,-3.9661,-3.9727,-3.9752,-3.98,-3.9881,-3.9953,-3.9962,-3.9992,-4.0021,-4.0026,-3.9884,-3.9865,-3.9847,-3.9822,-4.0027,-4.0027,-4.0173,-4.0174,-4.0175]}]]